This is the latest recevied weather packets stored in our database for station/object Krauchnws. If no packets are shown the sender has not sent any weather packets the latest 10 day(s).
| Time | Temp. | Humidity | Pressure | Rain* | Wind** | Luminosity | Snow |
|---|---|---|---|---|---|---|---|
| 1778144531 | 10° C | 87% | 1013.1 hPa | 1.02 mm | - | - | - |
| 1778142732 | 9.44° C | 91% | 1013.1 hPa | 1.02 mm | - | - | - |
| 1778140931 | 9.44° C | 92% | 1013 hPa | 1.02 mm | - | - | - |
| 1778139132 | 8.33° C | 94% | 1012.7 hPa | 1.02 mm | - | - | - |
| 1778137332 | 8.33° C | 95% | 1012.7 hPa | 0.76 mm | - | - | - |
| 1778135532 | 7.78° C | 95% | 1012.5 hPa | 0.76 mm | - | - | - |
| 1778133731 | 7.78° C | 95% | 1012.3 hPa | 0.51 mm | - | - | - |
| 1778131931 | 7.22° C | 95% | 1012 hPa | 0.51 mm | - | - | - |
| 1778130133 | 7.22° C | 95% | 1011.6 hPa | 0.25 mm | - | - | - |
| 1778128331 | 7.22° C | 94% | 1011.2 hPa | 0 mm | - | - | - |
| 1778126536 | 7.22° C | 94% | 1011.1 hPa | 0 mm | - | - | - |
| 1778124731 | 7.22° C | 94% | 1010.9 hPa | 0 mm | - | - | - |
| 1778122931 | 6.67° C | 95% | 1010.8 hPa | 0 mm | - | - | - |
| 1778121132 | 6.67° C | 95% | 1010.6 hPa | 0 mm | - | - | - |
| 1778119332 | 6.67° C | 95% | 1010.5 hPa | 0 mm | - | - | - |
| 1778117533 | 6.11° C | 95% | 1010.1 hPa | 0 mm | - | - | - |
| 1778115731 | 6.11° C | 95% | 1010.3 hPa | 0 mm | - | - | - |
| 1778113929 | 6.67° C | 95% | 1009.8 hPa | 0 mm | - | - | - |
| 1778112129 | 6.67° C | 94% | 1009.7 hPa | 0 mm | - | - | - |
| 1778110329 | 6.67° C | 93% | 1009.8 hPa | 0 mm | - | - | - |
| 1778108530 | 7.22° C | 93% | 1009.7 hPa | 0 mm | - | - | - |
| 1778106729 | 7.22° C | 94% | 1009.6 hPa | 0 mm | - | - | - |
| 1778103130 | 7.78° C | 93% | 1009.4 hPa | 2.29 mm | - | - | - |
| 1778101330 | 7.78° C | 93% | 1009.3 hPa | 2.29 mm | - | - | - |
| 1778099531 | 7.78° C | 93% | 1009.1 hPa | 2.29 mm | - | - | - |
* Rain since midnight (hover to see other rain measurements)
** Current wind speed in m/s (hover to see current wind gust speed)